Weather History for Murray, KY

Change the Weather History Date:

Tuesday, July 2, 2013

  Actual Average (KPAH) Record (KPAH)
Temperature  
Mean Temperature 70 °F 79 °F  
Max Temperature 77 °F 89 °F 101 °F (2012)
Min Temperature 62 °F 68 °F 56 °F (1948)
Degree Days  
Heating Degree Days 0 0  
Month to date heating degree days 0  
Since 1 June heating degree days 4  
Since 1 July heating degree days 0  
Cooling Degree Days 4 14  
Month to date cooling degree days 28  
Year to date cooling degree days 520  
Since 1 June cooling degree days 348  
Growing Degree Days 20 (Base 50)    
Moisture  
Dew Point 63 °F    
Average Humidity 84    
Maximum Humidity 100    
Minimum Humidity 61    
Precipitation  
Precipitation 0.00 in 0.14 in 2.68 in (1989)
Month to date precipitation 0.29  
Year to date precipitation 25.57  
Snow  
Snow 0.00 in 0.00 in - ()
Month to date snowfall 0.0  
Since 1 June snowfall 0.0  
Since 1 July snowfall 0.0  
Snow Depth -    
Sea Level Pressure  
Sea Level Pressure 29.96 in    
Wind  
Wind Speed 6 mph (West)    
Max Wind Speed 13 mph    
Max Gust Speed 20 mph    
Visibility 9 miles    
Events      
T = Trace of Precipitation, MM = Missing Value Source: NWS Daily Summary

Daily Weather History Graph

Daily Weather History Graph

Search for Another Location

Airport:

Trip Planner

Search our weather history database for the weather conditions in past years. The results will help you decide how hot, cold, wet, or windy it might be!

Date:

Astronomy

Jul. 02, 2013 Rise Set
Actual Time 5:39 AM CDT 8:15 PM CDT
Civil Twilight 5:08 AM CDT 8:46 PM CDT
Nautical Twilight 4:30 AM CDT 9:24 PM CDT
Astronomical Twilight 3:48 AM CDT 10:06 PM CDT
Moon 1:37 AM CDT (7/2) 3:33 PM CDT (7/2)
Length of Visible Light 15h 37m
Length of Day
14h 36m
Waning Crescent, 26% of the Moon is Illuminated
Jul 2
Waning Crescent
Jul 8
New
Jul 15
First Quarter
Jul 22
Full
Jul 29
Last Quarter

Hourly Weather History & Observations

Time (CDT) Temp. Dew Point Humidity Pressure Visibility Wind Dir Wind Speed Gust Speed Precip Events Conditions
12:15 AM 66.2 °F 64.4 °F 94% 29.91 in 10.0 mi NNW 4.6 mph - N/A   Overcast
12:35 AM 66.2 °F 64.4 °F 94% 29.91 in 10.0 mi North 4.6 mph - N/A   Overcast
12:55 AM 64.4 °F 64.4 °F 100% 29.90 in 10.0 mi NW 4.6 mph - N/A   Overcast
1:15 AM 64.4 °F 64.4 °F 100% 29.90 in 8.0 mi NW 4.6 mph - N/A   Overcast
1:35 AM 64.4 °F 64.4 °F 100% 29.90 in 9.0 mi WNW 3.5 mph - N/A   Overcast
1:55 AM 64.4 °F 64.4 °F 100% 29.90 in 8.0 mi Calm Calm - N/A   Overcast
2:15 AM 64.4 °F 64.4 °F 100% 29.90 in 8.0 mi Calm Calm - N/A   Overcast
2:35 AM 64.4 °F 64.4 °F 100% 29.89 in 8.0 mi WNW 4.6 mph - N/A   Overcast
2:55 AM 64.4 °F 64.4 °F 100% 29.89 in 7.0 mi WNW 4.6 mph - N/A   Overcast
3:15 AM 64.4 °F 64.4 °F 100% 29.89 in 7.0 mi WNW 3.5 mph - N/A   Overcast
3:35 AM 64.4 °F 64.4 °F 100% 29.89 in 8.0 mi West 3.5 mph - N/A   Overcast
3:55 AM 64.4 °F 64.4 °F 100% 29.90 in 7.0 mi West 3.5 mph - N/A   Overcast
4:15 AM 64.4 °F 64.4 °F 100% 29.90 in 5.0 mi Calm Calm - N/A   Overcast
4:35 AM 64.4 °F 64.4 °F 100% 29.90 in 4.0 mi Calm Calm - N/A   Overcast
4:55 AM 64.4 °F 64.4 °F 100% 29.90 in 4.0 mi WSW 4.6 mph - N/A   Overcast
5:15 AM 64.4 °F 64.4 °F 100% 29.91 in 7.0 mi SW 4.6 mph - N/A   Overcast
5:35 AM 64.4 °F 64.4 °F 100% 29.91 in 7.0 mi WSW 4.6 mph - N/A   Overcast
5:55 AM 64.4 °F 64.4 °F 100% 29.92 in 5.0 mi WSW 3.5 mph - N/A   Overcast
6:15 AM 64.4 °F 64.4 °F 100% 29.93 in 5.0 mi SSW 3.5 mph - N/A   Overcast
6:35 AM 64.4 °F 64.4 °F 100% 29.93 in 5.0 mi Calm Calm - N/A   Overcast
6:55 AM 64.4 °F 64.4 °F 100% 29.94 in 5.0 mi SSW 3.5 mph - N/A   Overcast
7:15 AM 64.4 °F 64.4 °F 100% 29.94 in 7.0 mi SSW 3.5 mph - N/A   Overcast
7:35 AM 64.4 °F 64.4 °F 100% 29.95 in 6.0 mi SW 5.8 mph - N/A   Overcast
7:55 AM 66.2 °F 64.4 °F 94% 29.95 in 8.0 mi SW 3.5 mph - N/A   Overcast
8:15 AM 66.2 °F 64.4 °F 94% 29.95 in 9.0 mi SSW 4.6 mph - N/A   Overcast
8:35 AM 66.2 °F 64.4 °F 94% 29.95 in 10.0 mi South 5.8 mph - N/A   Overcast
8:55 AM 66.2 °F 64.4 °F 94% 29.96 in 10.0 mi SSW 5.8 mph - N/A   Overcast
9:15 AM 66.2 °F 64.4 °F 94% 29.96 in 10.0 mi SSW 6.9 mph - N/A   Overcast
9:35 AM 66.2 °F 64.4 °F 94% 29.96 in 10.0 mi SSW 8.1 mph - N/A   Overcast
9:55 AM 68.0 °F 64.4 °F 88% 29.96 in 10.0 mi SSW 5.8 mph - N/A   Overcast
10:15 AM 68.0 °F 64.4 °F 88% 29.97 in 10.0 mi SW 9.2 mph - N/A   Overcast
10:35 AM 68.0 °F 62.6 °F 83% 29.96 in 10.0 mi SW 6.9 mph - N/A   Overcast
10:55 AM 69.8 °F 64.4 °F 83% 29.97 in 10.0 mi SW 11.5 mph 16.1 mph N/A   Mostly Cloudy
11:15 AM 69.8 °F 62.6 °F 78% 29.97 in 10.0 mi SW 10.4 mph - N/A   Overcast
11:35 AM 71.6 °F 62.6 °F 73% 29.97 in 10.0 mi West 9.2 mph - N/A   Overcast
11:55 AM 71.6 °F 64.4 °F 78% 29.97 in 10.0 mi WSW 11.5 mph - N/A   Overcast
12:15 PM 73.4 °F 62.6 °F 69% 29.98 in 10.0 mi SW 9.2 mph 18.4 mph N/A   Overcast
12:35 PM 73.4 °F 62.6 °F 69% 29.98 in 10.0 mi SW 9.2 mph - N/A   Mostly Cloudy
12:55 PM 71.6 °F 62.6 °F 73% 29.98 in 10.0 mi WSW 5.8 mph - N/A   Overcast
1:15 PM 71.6 °F 62.6 °F 73% 29.99 in 10.0 mi SW 11.5 mph 17.3 mph N/A   Overcast
1:35 PM 73.4 °F 64.4 °F 73% 29.98 in 10.0 mi WSW 12.7 mph - N/A   Overcast
1:55 PM 73.4 °F 64.4 °F 73% 29.98 in 10.0 mi WSW 11.5 mph - N/A   Overcast
2:15 PM 75.2 °F 64.4 °F 69% 29.97 in 10.0 mi West 12.7 mph - N/A   Overcast
2:35 PM 73.4 °F 62.6 °F 69% 29.98 in 10.0 mi West 11.5 mph - N/A   Overcast
2:55 PM 73.4 °F 62.6 °F 69% 29.98 in 10.0 mi WSW 8.1 mph - N/A   Overcast
3:15 PM 75.2 °F 64.4 °F 69% 29.98 in 10.0 mi West 10.4 mph 19.6 mph N/A   Mostly Cloudy
3:35 PM 75.2 °F 62.6 °F 65% 29.98 in 10.0 mi West 8.1 mph - N/A   Mostly Cloudy
3:55 PM 77.0 °F 62.6 °F 61% 29.98 in 10.0 mi WSW 11.5 mph 17.3 mph N/A   Mostly Cloudy
4:15 PM 75.2 °F 62.6 °F 65% 29.98 in 10.0 mi West 9.2 mph - N/A   Mostly Cloudy
4:35 PM 75.2 °F 62.6 °F 65% 29.98 in 10.0 mi WSW 11.5 mph - N/A   Mostly Cloudy
4:55 PM 77.0 °F 62.6 °F 61% 29.98 in 10.0 mi West 9.2 mph - N/A   Scattered Clouds
5:15 PM 75.2 °F 62.6 °F 65% 29.98 in 10.0 mi WNW 10.4 mph - N/A   Scattered Clouds
5:35 PM 75.2 °F 62.6 °F 65% 29.98 in 10.0 mi West 5.8 mph - N/A   Scattered Clouds
5:55 PM 75.2 °F 60.8 °F 61% 29.99 in 10.0 mi West 10.4 mph - N/A   Partly Cloudy
6:15 PM 75.2 °F 60.8 °F 61% 29.99 in 10.0 mi WNW 8.1 mph - N/A   Clear
6:35 PM 75.2 °F 60.8 °F 61% 29.99 in 10.0 mi West 10.4 mph - N/A   Clear
6:55 PM 73.4 °F 62.6 °F 69% 29.99 in 10.0 mi WNW 9.2 mph - N/A   Clear
7:15 PM 73.4 °F 62.6 °F 69% 30.00 in 10.0 mi WNW 8.1 mph - N/A   Clear
7:35 PM 71.6 °F 62.6 °F 73% 30.00 in 10.0 mi WNW 6.9 mph - N/A   Clear
7:55 PM 69.8 °F 62.6 °F 78% 30.01 in 10.0 mi WNW 5.8 mph - N/A   Clear
8:15 PM 68.0 °F 62.6 °F 83% 30.02 in 10.0 mi WNW 4.6 mph - N/A   Clear
8:35 PM 68.0 °F 62.6 °F 83% 30.03 in 10.0 mi NW 4.6 mph - N/A   Clear
8:55 PM 66.2 °F 62.6 °F 88% 30.03 in 10.0 mi WNW 6.9 mph - N/A   Partly Cloudy
9:15 PM 66.2 °F 60.8 °F 83% 30.04 in 10.0 mi NW 4.6 mph - N/A   Scattered Clouds
9:35 PM 66.2 °F 60.8 °F 83% 30.04 in 10.0 mi WNW 5.8 mph - N/A   Mostly Cloudy
9:55 PM 64.4 °F 60.8 °F 88% 30.04 in 10.0 mi NW 4.6 mph - N/A   Overcast
10:15 PM 64.4 °F 60.8 °F 88% 30.04 in 10.0 mi WNW 5.8 mph - N/A   Mostly Cloudy
10:35 PM 64.4 °F 60.8 °F 88% 30.04 in 10.0 mi WNW 6.9 mph - N/A   Mostly Cloudy
10:55 PM 64.4 °F 59.0 °F 83% 30.04 in 10.0 mi WNW 5.8 mph - N/A   Mostly Cloudy
11:15 PM 62.6 °F 59.0 °F 88% 30.04 in 10.0 mi WNW 4.6 mph - N/A   Partly Cloudy
11:35 PM 62.6 °F 59.0 °F 88% 30.04 in 10.0 mi WNW 4.6 mph - N/A   Clear
11:55 PM 62.6 °F 59.0 °F 88% 30.04 in 10.0 mi WSW 3.5 mph - N/A   Clear